User: anonymous   Login
Location: Unspecified
(0.0000°N, 0.0000°E)
Time: 17:55:01
(UTC+01:00)
Language:

Cosmos 1300 - Orbit

View from above orbital plane
View from above orbital plane
View from above satellite
View from above satellite

Ground track
Ground track

The orbit data is extracted from the following two-line orbital elements,

1 12785U 81082A   16044.90059464  .00003100  00000-0  16138-3 0  9990
2 12785  82.5052 196.6250 0002245 117.2584  43.2337 15.15681392877709
Epoch (UTC): 13 February 2016 21:36:51
Eccentricity: 0.0002245
inclination: 82.5052°
perigee height: 517 km
apogee height: 520 km
right ascension of ascending node: 196.6250°
argument of perigee: 117.2584°
revolutions per day: 15.15681392
mean anomaly at epoch: 43.2337°
orbit number at epoch: 87770

The dashed part of the orbit path shows where the satellite is in the earth's shadow,  

DLR